User: anonymous   Login
Location: Caltech
(34.1382°N, 118.1253°W)
Time: 12:17:43
(UTC-07:00)
Language:

Meteor 1-11 Rocket - Orbit

View from above orbital plane
View from above orbital plane
View from above satellite
View from above satellite

Ground track
Ground track

The orbit data is extracted from the following two-line orbital elements,

1 05918U 72022B   18171.45850800  .00000088  00000-0  45477-4 0  9991
2 05918  81.2366 329.6148 0058699  12.9426 347.3232 14.05839176369742
Epoch (UTC): 20 June 2018 11:00:15
Eccentricity: 0.0058699
inclination: 81.2366°
perigee height: 831 km
apogee height: 916 km
right ascension of ascending node: 329.6148°
argument of perigee: 12.9426°
revolutions per day: 14.05839176
mean anomaly at epoch: 347.3232°
orbit number at epoch: 36974

The dashed part of the orbit path shows where the satellite is in the earth's shadow,  

DLR